QPF
0.00 0.00 0.00 0.00 0.00 0.00 0.00 0.00 0.00 0.00 0.00 0.00 0.00 0.00 0.00 0.00 0.00 0.00 0.00 0.00 0.00 0.01 0.01 0.01 0.01 0.01 0.01 0.01 0.01 0.02 0.03 0.03 0.04 0.03 0.02 0.03 0.05 0.05 0.05 0.05 0.04 0.03 0.03
0.00 0.00 0.00 0.00 0.00 0.00 0.00 0.00 0.00 0.00 0.00 0.00 0.00 0.00 0.00 0.00 0.00 0.00 0.00 0.00 0.00 0.00 0.00 0.00 0.00 0.00 0.01 0.01 0.01 0.01 0.02 0.02 0.02 0.02 0.02 0.03 0.05 0.05 0.07 0.08 0.06 0.04 0.03
0.00 0.00 0.00 0.00 0.00 0.00 0.00 0.00 0.00 0.00 0.00 0.00 0.00 0.00 0.00 0.00 0.00 0.00 0.00 0.00 0.00 0.00 0.00 0.00 0.00 0.01 0.01 0.01 0.01 0.01 0.01 0.01 0.01 0.01 0.01 0.02 0.03 0.04 0.06 0.07 0.08 0.07 0.06
0.00 0.00 0.00 0.00 0.00 0.00 0.00 0.00 0.00 0.00 0.00 0.00 0.00 0.00 0.00 0.00 0.00 0.00 0.00 0.00 0.00 0.00 0.00 0.01 0.01 0.00 0.01 0.01 0.00 0.00 0.00 0.00 0.00 0.00 0.00 0.00 0.02 0.03 0.05 0.06 0.07 0.05 0.06
0.00 0.00 0.00 0.00 0.00 0.00 0.00 0.00 0.00 0.00 0.00 0.00 0.00 0.00 0.00 0.00 0.00 0.00 0.00 0.00 0.00 0.00 0.00 0.00 0.00 0.00 0.00 0.01 0.01 0.00 0.00 0.01 0.00 0.00 0.00 0.00 0.01 0.03 0.05 0.04 0.05 0.04 0.04
0.00 0.00 0.00 0.00 0.00 0.00 0.00 0.00 0.00 0.00 0.00 0.00 0.00 0.00 0.00 0.00 0.00 0.00 0.00 0.00 0.00 0.00 0.00 0.00 0.00 0.00 0.00 0.00 0.00 0.00 0.01 0.01 0.01 0.01 0.01 0.00 0.00 0.01 0.03 0.03 0.03 0.03 0.02
0.00 0.00 0.00 0.00 0.00 0.00 0.00 0.00 0.00 0.00 0.00 0.00 0.00 0.00 0.00 0.00 0.00 0.00 0.00 0.00 0.00 0.00 0.00 0.00 0.00 0.00 0.00 0.00 0.01 0.01 0.00 0.01 0.01 0.01 0.01 0.01 0.01 0.00 0.01 0.02 0.01 0.02 0.02
0.00 0.00 0.00 0.00 0.00 0.00 0.00 0.00 0.00 0.00 0.00 0.00 0.00 0.00 0.00 0.00 0.00 0.00 0.00 0.00 0.00 0.00 0.00 0.00 0.00 0.00 0.00 0.00 0.00 0.00 0.01 0.00 0.01 0.01 0.01 0.01 0.01 0.01 0.01 0.02 0.01 0.01 0.01
0.00 0.00 0.00 0.00 0.00 0.00 0.00 0.00 0.00 0.00 0.00 0.00 0.00 0.00 0.00 0.00 0.00 0.00 0.00 0.00 0.00 0.00 0.00 0.00 0.00 0.00 0.00 0.00 0.00 0.00 0.01 0.00 0.00 0.01 0.01 0.02 0.03 0.03 0.02 0.01 0.01 0.01 0.01
0.00 0.00 0.00 0.00 0.00 0.00 0.00 0.00 0.00 0.00 0.00 0.00 0.00 0.00 0.00 0.00 0.00 0.00 0.00 0.00 0.00 0.00 0.00 0.00 0.00 0.00 0.00 0.00 0.00 0.00 0.01 0.00 0.00 0.01 0.02 0.01 0.02 0.02 0.02 0.02 0.01 0.01 0.01
0.00 0.00 0.00 0.00 0.00 0.00 0.00 0.00 0.00 0.00 0.00 0.00 0.00 0.00 0.00 0.00 0.00 0.00 0.00 0.00 0.00 0.00 0.00 0.00 0.00 0.00 0.00 0.00 0.00 0.00 0.01 0.01 0.01 0.01 0.01 0.01 0.01 0.01 0.01 0.01 0.01 0.00 0.00
0.00 0.00 0.00 0.00 0.00 0.00 0.00 0.00 0.00 0.00 0.00 0.00 0.00 0.00 0.00 0.00 0.00 0.00 0.00 0.00 0.00 0.00 0.00 0.00 0.00 0.00 0.00 0.00 0.00 0.00 0.00 0.01 0.02 0.01 0.00 0.00 0.00 0.00 0.01 0.01 0.01 0.00 0.00
0.00 0.00 0.00 0.00 0.00 0.00 0.00 0.00 0.00 0.00 0.00 0.00 0.00 0.00 0.00 0.00 0.00 0.00 0.00 0.00 0.00 0.00 0.00 0.00 0.00 0.00 0.00 0.00 0.00 0.00 0.00 0.00 0.00 0.00 0.00 0.00 0.01 0.01 0.01 0.01 0.00 0.00 0.00
0.00 0.00 0.00 0.00 0.00 0.00 0.00 0.00 0.00 0.00 0.00 0.00 0.00 0.00 0.00 0.00 0.00 0.00 0.00 0.00 0.00 0.00 0.00 0.00 0.00 0.00 0.00 0.00 0.00 0.00 0.00 0.00 0.00 0.00 0.01 0.01 0.01 0.01 0.01 0.01 0.00 0.00 0.00
0.00 0.00 0.00 0.00 0.00 0.00 0.00 0.00 0.00 0.01 0.01 0.01 0.01 0.00 0.00 0.00 0.00 0.00 0.00 0.00 0.00 0.00 0.00 0.00 0.00 0.00 0.00 0.00 0.00 0.00 0.00 0.00 0.00 0.00 0.01 0.01 0.01 0.01 0.01 0.01 0.01 0.01 0.00
0.00 0.00 0.00 0.00 0.00 0.00 0.00 0.00 0.01 0.01 0.01 0.01 0.01 0.01 0.00 0.00 0.00 0.00 0.00 0.00 0.00 0.00 0.00 0.00 0.00 0.00 0.00 0.00 0.00 0.00 0.00 0.00 0.00 0.00 0.00 0.00 0.00 0.01 0.00 0.00 0.00 0.00 0.00
0.00 0.00 0.00 0.00 0.00 0.00 0.00 0.00 0.00 0.01 0.01 0.01 0.01 0.01 0.01 0.01 0.00 0.00 0.00 0.00 0.00 0.00 0.00 0.00 0.00 0.00 0.00 0.00 0.00 0.00 0.00 0.00 0.00 0.00 0.00 0.00 0.00 0.00 0.00 0.00 0.00 0.00 0.00
0.00 0.00 0.00 0.01 0.00 0.00 0.00 0.00 0.00 0.00 0.01 0.01 0.02 0.02 0.01 0.01 0.01 0.01 0.00 0.00 0.00 0.00 0.00 0.00 0.00 0.00 0.00 0.00 0.00 0.00 0.00 0.00 0.00 0.00 0.00 0.00 0.00 0.00 0.00 0.00 0.00 0.00 0.00
0.00 0.01 0.01 0.01 0.01 0.01 0.01 0.01 0.00 0.01 0.01 0.01 0.02 0.02 0.02 0.02 0.01 0.01 0.01 0.00 0.00 0.00 0.00 0.00 0.00 0.00 0.00 0.00 0.00 0.00 0.00 0.00 0.00 0.00 0.00 0.00 0.00 0.00 0.00 0.00 0.00 0.00 0.00
0.00 0.01 0.01 0.01 0.01 0.01 0.01 0.01 0.01 0.01 0.01 0.01 0.02 0.02 0.03 0.02 0.02 0.01 0.00 0.00 0.00 0.00 0.00 0.00 0.00 0.00 0.00 0.00 0.00 0.00 0.00 0.00 0.00 0.00 0.00 0.00 0.00 0.00 0.00 0.00 0.00 0.00 0.00
0.01 0.01 0.01 0.01 0.01 0.01 0.02 0.02 0.02 0.02 0.02 0.02 0.02 0.03 0.03 0.03 0.02 0.01 0.01 0.01 0.01 0.00 0.00 0.00 0.00 0.00 0.00 0.00 0.00 0.00 0.00 0.00 0.00 0.00 0.00 0.00 0.00 0.00 0.00 0.00 0.00 0.00 0.00
0.01 0.01 0.01 0.02 0.02 0.02 0.02 0.02 0.02 0.02 0.03 0.03 0.03 0.04 0.04 0.03 0.03 0.02 0.01 0.01 0.01 0.00 0.00 0.00 0.00 0.00 0.00 0.00 0.00 0.00 0.00 0.00 0.00 0.00 0.00 0.00 0.00 0.00 0.00 0.00 0.00 0.00 0.00
0.02 0.02 0.02 0.03 0.03 0.03 0.03 0.03 0.03 0.03 0.03 0.03 0.03 0.04 0.04 0.03 0.03 0.02 0.02 0.01 0.01 0.01 0.01 0.01 0.00 0.00 0.00 0.00 0.00 0.00 0.00 0.00 0.00 0.00 0.00 0.00 0.00 0.00 0.00 0.00 0.00 0.00 0.00
0.02 0.02 0.02 0.03 0.03 0.03 0.03 0.04 0.05 0.05 0.04 0.04 0.04 0.04 0.04 0.04 0.03 0.03 0.02 0.02 0.02 0.02 0.02 0.01 0.01 0.01 0.00 0.00 0.00 0.00 0.00 0.00 0.00 0.00 0.00 0.00 0.00 0.00 0.00 0.00 0.00 0.00 0.00
0.02 0.02 0.02 0.02 0.03 0.03 0.04 0.04 0.05 0.06 0.06 0.06 0.06 0.06 0.06 0.06 0.06 0.05 0.04 0.03 0.02 0.02 0.02 0.02 0.02 0.02 0.01 0.01 0.00 0.00 0.00 0.00 0.00 0.00 0.00 0.00 0.00 0.00 0.00 0.00 0.00 0.00 0.00
0.01 0.01 0.02 0.02 0.03 0.03 0.04 0.04 0.05 0.07 0.07 0.07 0.07 0.07 0.09 0.10 0.09 0.08 0.06 0.05 0.04 0.04 0.04 0.03 0.03 0.02 0.02 0.02 0.01 0.01 0.00 0.00 0.00 0.00 0.00 0.00 0.00 0.00 0.00 0.00 0.00 0.00 0.00
MSLP
1011.37 1011.78 1012.18 1012.54 1012.84 1013.07 1013.22 1013.34 1013.43 1013.52 1013.64 1013.79 1013.96 1014.17 1014.37 1014.57 1014.75 1014.90 1015.03 1015.14 1015.24 1015.35 1015.48 1015.61 1015.76 1015.90 1016.03 1016.14 1016.22 1016.26 1016.27 1016.24 1016.16 1016.06 1015.91 1015.73 1015.53 1015.31 1015.09 1014.86 1014.66 1014.47 1014.33
1010.87 1011.21 1011.58 1011.93 1012.23 1012.49 1012.68 1012.84 1012.97 1013.10 1013.24 1013.40 1013.59 1013.79 1013.99 1014.20 1014.39 1014.56 1014.71 1014.84 1014.96 1015.08 1015.21 1015.34 1015.47 1015.60 1015.73 1015.86 1015.96 1016.05 1016.12 1016.16 1016.17 1016.14 1016.07 1015.96 1015.81 1015.62 1015.41 1015.19 1014.97 1014.77 1014.59
1010.40 1010.67 1010.98 1011.29 1011.59 1011.85 1012.07 1012.26 1012.43 1012.59 1012.75 1012.93 1013.13 1013.34 1013.55 1013.77 1013.97 1014.16 1014.33 1014.48 1014.62 1014.75 1014.88 1015.00 1015.12 1015.25 1015.38 1015.51 1015.64 1015.77 1015.89 1016.00 1016.08 1016.13 1016.13 1016.08 1015.98 1015.83 1015.64 1015.43 1015.20 1014.98 1014.78
1010.01 1010.18 1010.41 1010.66 1010.92 1011.17 1011.39 1011.59 1011.78 1011.97 1012.16 1012.36 1012.57 1012.79 1013.02 1013.25 1013.47 1013.68 1013.87 1014.04 1014.19 1014.33 1014.46 1014.58 1014.70 1014.82 1014.95 1015.10 1015.25 1015.41 1015.58 1015.74 1015.88 1015.99 1016.06 1016.07 1016.01 1015.90 1015.74 1015.54 1015.32 1015.09 1014.87
1009.73 1009.79 1009.91 1010.07 1010.26 1010.45 1010.65 1010.84 1011.03 1011.23 1011.44 1011.66 1011.89 1012.12 1012.37 1012.61 1012.85 1013.08 1013.28 1013.47 1013.64 1013.79 1013.92 1014.05 1014.17 1014.30 1014.44 1014.59 1014.76 1014.96 1015.16 1015.36 1015.55 1015.72 1015.83 1015.89 1015.89 1015.82 1015.69 1015.52 1015.32 1015.09 1014.86
1009.58 1009.49 1009.48 1009.53 1009.61 1009.73 1009.87 1010.03 1010.20 1010.39 1010.60 1010.83 1011.07 1011.32 1011.58 1011.84 1012.09 1012.33 1012.55 1012.76 1012.94 1013.11 1013.26 1013.40 1013.53 1013.67 1013.82 1013.99 1014.18 1014.39 1014.62 1014.86 1015.09 1015.29 1015.46 1015.56 1015.61 1015.59 1015.50 1015.37 1015.19 1014.99 1014.76
1009.54 1009.31 1009.15 1009.05 1009.01 1009.03 1009.08 1009.18 1009.31 1009.47 1009.67 1009.89 1010.13 1010.39 1010.66 1010.93 1011.19 1011.44 1011.68 1011.90 1012.10 1012.29 1012.46 1012.61 1012.77 1012.92 1013.09 1013.28 1013.49 1013.72 1013.98 1014.24 1014.50 1014.74 1014.94 1015.10 1015.19 1015.22 1015.19 1015.11 1014.98 1014.81 1014.61
1009.60 1009.22 1008.91 1008.66 1008.48 1008.36 1008.31 1008.32 1008.39 1008.51 1008.67 1008.87 1009.10 1009.35 1009.62 1009.89 1010.16 1010.42 1010.67 1010.91 1011.14 1011.35 1011.54 1011.73 1011.91 1012.09 1012.29 1012.50 1012.73 1012.98 1013.25 1013.53 1013.82 1014.09 1014.33 1014.53 1014.67 1014.76 1014.80 1014.77 1014.70 1014.58 1014.42
1009.72 1009.20 1008.74 1008.35 1008.02 1007.77 1007.60 1007.50 1007.48 1007.53 1007.64 1007.80 1008.00 1008.24 1008.49 1008.76 1009.03 1009.30 1009.57 1009.84 1010.09 1010.34 1010.57 1010.79 1011.01 1011.23 1011.45 1011.68 1011.94 1012.20 1012.49 1012.79 1013.09 1013.38 1013.66 1013.90 1014.10 1014.26 1014.35 1014.40 1014.39 1014.33 1014.21
1009.87 1009.23 1008.64 1008.10 1007.64 1007.25 1006.95 1006.74 1006.61 1006.58 1006.61 1006.71 1006.87 1007.07 1007.30 1007.56 1007.84 1008.13 1008.42 1008.72 1009.02 1009.31 1009.59 1009.87 1010.13 1010.39 1010.64 1010.90 1011.17 1011.46 1011.75 1012.06 1012.38 1012.69 1013.00 1013.28 1013.53 1013.74 1013.90 1014.02 1014.07 1014.07 1014.01
1010.01 1009.28 1008.57 1007.91 1007.32 1006.80 1006.37 1006.04 1005.80 1005.66 1005.60 1005.62 1005.72 1005.87 1006.08 1006.32 1006.60 1006.91 1007.25 1007.59 1007.95 1008.30 1008.65 1008.99 1009.31 1009.61 1009.91 1010.20 1010.48 1010.78 1011.08 1011.40 1011.72 1012.06 1012.38 1012.70 1012.99 1013.26 1013.48 1013.65 1013.77 1013.83 1013.83
1010.11 1009.31 1008.51 1007.75 1007.05 1006.41 1005.86 1005.40 1005.04 1004.78 1004.61 1004.54 1004.56 1004.65 1004.82 1005.06 1005.35 1005.69 1006.07 1006.48 1006.91 1007.34 1007.76 1008.17 1008.56 1008.92 1009.26 1009.58 1009.89 1010.19 1010.51 1010.83 1011.16 1011.51 1011.86 1012.20 1012.53 1012.84 1013.10 1013.33 1013.50 1013.61 1013.66
1010.13 1009.28 1008.43 1007.59 1006.79 1006.05 1005.39 1004.81 1004.32 1003.93 1003.65 1003.47 1003.40 1003.43 1003.55 1003.77 1004.07 1004.45 1004.89 1005.37 1005.88 1006.40 1006.92 1007.41 1007.87 1008.29 1008.67 1009.03 1009.37 1009.69 1010.02 1010.35 1010.70 1011.06 1011.43 1011.80 1012.16 1012.50 1012.80 1013.07 1013.28 1013.43 1013.52
1010.05 1009.17 1008.28 1007.39 1006.53 1005.70 1004.94 1004.24 1003.63 1003.12 1002.71 1002.42 1002.25 1002.20 1002.28 1002.48 1002.79 1003.21 1003.71 1004.27 1004.87 1005.48 1006.08 1006.66 1007.19 1007.68 1008.12 1008.52 1008.88 1009.24 1009.59 1009.94 1010.32 1010.70 1011.10 1011.50 1011.89 1012.26 1012.59 1012.89 1013.13 1013.32 1013.45
1009.83 1008.95 1008.04 1007.13 1006.22 1005.34 1004.49 1003.70 1002.97 1002.34 1001.81 1001.40 1001.13 1001.00 1001.03 1001.21 1001.52 1001.97 1002.52 1003.16 1003.84 1004.54 1005.22 1005.88 1006.48 1007.03 1007.53 1007.97 1008.38 1008.77 1009.16 1009.56 1009.97 1010.40 1010.83 1011.27 1011.70 1012.11 1012.48 1012.80 1013.07 1013.29 1013.44
1009.46 1008.59 1007.69 1006.78 1005.85 1004.94 1004.03 1003.17 1002.35 1001.61 1000.97 1000.46 1000.09 999.88 999.85 1000.00 1000.31 1000.78 1001.37 1002.05 1002.79 1003.56 1004.32 1005.03 1005.70 1006.30 1006.84 1007.34 1007.80 1008.24 1008.69 1009.14 1009.62 1010.11 1010.61 1011.11 1011.59 1012.04 1012.45 1012.80 1013.10 1013.33 1013.51
1008.92 1008.08 1007.21 1006.33 1005.42 1004.50 1003.57 1002.66 1001.78 1000.96 1000.23 999.62 999.16 998.88 998.79 998.90 999.20 999.66 1000.27 1000.98 1001.76 1002.56 1003.36 1004.12 1004.82 1005.46 1006.05 1006.59 1007.11 1007.62 1008.13 1008.67 1009.22 1009.80 1010.38 1010.96 1011.51 1012.02 1012.48 1012.87 1013.19 1013.45 1013.65
1008.23 1007.44 1006.63 1005.79 1004.92 1004.03 1003.10 1002.17 1001.25 1000.38 999.58 998.90 998.37 998.03 997.89 997.95 998.21 998.66 999.26 999.98 1000.76 1001.57 1002.38 1003.15 1003.87 1004.54 1005.16 1005.75 1006.32 1006.90 1007.49 1008.11 1008.77 1009.44 1010.13 1010.80 1011.43 1012.01 1012.52 1012.96 1013.31 1013.59 1013.81
1007.42 1006.69 1005.95 1005.18 1004.37 1003.52 1002.63 1001.70 1000.77 999.87 999.03 998.30 997.72 997.32 997.13 997.15 997.38 997.80 998.37 999.06 999.83 1000.62 1001.42 1002.18 1002.90 1003.57 1004.21 1004.84 1005.46 1006.11 1006.78 1007.50 1008.26 1009.04 1009.83 1010.59 1011.32 1011.97 1012.55 1013.03 1013.42 1013.72 1013.95
1006.54 1005.88 1005.21 1004.51 1003.77 1002.98 1002.13 1001.23 1000.31 999.40 998.54 997.78 997.16 996.73 996.50 996.48 996.67 997.05 997.59 998.25 998.98 999.74 1000.51 1001.24 1001.95 1002.62 1003.28 1003.92 1004.59 1005.30 1006.05 1006.86 1007.71 1008.59 1009.48 1010.34 1011.14 1011.87 1012.50 1013.03 1013.46 1013.79 1014.03
1005.64 1005.04 1004.44 1003.82 1003.14 1002.40 1001.58 1000.71 999.80 998.89 998.03 997.25 996.62 996.16 995.91 995.86 996.03 996.38 996.89 997.52 998.21 998.94 999.67 1000.39 1001.08 1001.75 1002.41 1003.08 1003.79 1004.55 1005.36 1006.24 1007.17 1008.14 1009.10 1010.03 1010.91 1011.69 1012.38 1012.95 1013.40 1013.76 1014.02
1004.79 1004.23 1003.69 1003.11 1002.47 1001.76 1000.97 1000.11 999.21 998.30 997.43 996.65 996.00 995.53 995.27 995.22 995.37 995.71 996.21 996.82 997.50 998.22 998.93 999.64 1000.32 1001.00 1001.67 1002.37 1003.11 1003.91 1004.78 1005.71 1006.69 1007.71 1008.73 1009.71 1010.63 1011.45 1012.17 1012.77 1013.25 1013.62 1013.90
1004.01 1003.49 1002.97 1002.41 1001.79 1001.08 1000.28 999.41 998.50 997.57 996.69 995.89 995.24 994.78 994.52 994.47 994.64 994.99 995.50 996.12 996.82 997.55 998.28 999.01 999.71 1000.41 1001.11 1001.84 1002.61 1003.44 1004.34 1005.31 1006.32 1007.36 1008.40 1009.40 1010.34 1011.18 1011.91 1012.53 1013.02 1013.41 1013.70
1003.36 1002.85 1002.32 1001.75 1001.10 1000.36 999.53 998.62 997.66 996.71 995.80 994.99 994.33 993.87 993.63 993.61 993.80 994.20 994.75 995.42 996.16 996.94 997.72 998.50 999.25 1000.00 1000.74 1001.51 1002.32 1003.18 1004.10 1005.08 1006.09 1007.13 1008.17 1009.16 1010.08 1010.92 1011.64 1012.26 1012.76 1013.15 1013.46
1002.83 1002.31 1001.76 1001.15 1000.44 999.65 998.75 997.78 996.77 995.77 994.83 994.00 993.34 992.89 992.67 992.69 992.93 993.38 994.00 994.74 995.56 996.41 997.28 998.13 998.96 999.77 1000.58 1001.40 1002.24 1003.13 1004.06 1005.03 1006.03 1007.05 1008.05 1009.01 1009.90 1010.70 1011.41 1012.00 1012.50 1012.90 1013.22
1002.42 1001.88 1001.30 1000.64 999.88 999.01 998.04 997.00 995.93 994.88 993.90 993.06 992.40 991.96 991.77 991.84 992.14 992.66 993.35 994.18 995.09 996.04 996.99 997.94 998.86 999.75 1000.62 1001.49 1002.37 1003.28 1004.21 1005.16 1006.13 1007.11 1008.06 1008.96 1009.80 1010.56 1011.23 1011.80 1012.28 1012.67 1012.99
Thickness
5718 5715 5713 5710 5708 5705 5702 5700 5697 5695 5692 5689 5686 5683 5680 5677 5674 5670 5668 5666 5664 5662 5661 5660 5659 5659 5659 5660 5662 5663 5665 5667 5666 5668 5673 5678 5682 5686 5689 5693 5696 5698 5701
5718 5714 5711 5709 5706 5703 5701 5700 5697 5695 5693 5690 5687 5683 5681 5678 5674 5671 5669 5667 5664 5662 5661 5659 5658 5658 5658 5658 5659 5661 5662 5664 5665 5665 5668 5672 5676 5679 5683 5686 5689 5692 5695
5717 5713 5710 5707 5705 5703 5702 5700 5697 5695 5692 5690 5687 5684 5681 5679 5675 5673 5670 5667 5665 5663 5661 5659 5658 5657 5657 5657 5658 5658 5660 5662 5662 5663 5663 5666 5669 5673 5676 5680 5683 5685 5689
5715 5712 5709 5708 5706 5704 5702 5699 5697 5694 5692 5689 5687 5685 5682 5679 5676 5674 5671 5668 5666 5664 5662 5660 5658 5657 5657 5656 5656 5656 5657 5657 5658 5658 5659 5661 5663 5667 5670 5671 5674 5677 5680
5713 5711 5710 5708 5705 5703 5700 5698 5696 5693 5692 5689 5686 5684 5681 5679 5677 5674 5671 5669 5666 5664 5662 5660 5659 5659 5658 5657 5656 5655 5654 5653 5653 5653 5654 5655 5657 5660 5662 5664 5666 5669 5672
5710 5709 5708 5705 5703 5700 5698 5696 5693 5691 5689 5687 5685 5683 5680 5680 5679 5677 5673 5669 5666 5664 5662 5661 5659 5659 5659 5658 5658 5657 5655 5652 5651 5650 5650 5651 5653 5655 5657 5659 5660 5662 5664
5706 5706 5704 5702 5700 5698 5696 5693 5691 5689 5687 5685 5683 5681 5680 5679 5679 5677 5674 5670 5666 5664 5662 5660 5660 5660 5658 5656 5656 5656 5655 5654 5653 5651 5649 5649 5650 5652 5654 5654 5655 5656 5657
5700 5700 5699 5697 5696 5695 5693 5691 5690 5687 5685 5684 5682 5681 5679 5679 5678 5677 5674 5670 5666 5664 5662 5660 5658 5658 5657 5656 5654 5652 5651 5651 5651 5650 5649 5649 5650 5650 5651 5652 5652 5651 5652
5693 5693 5693 5693 5692 5690 5689 5689 5687 5685 5683 5682 5681 5679 5678 5677 5677 5675 5673 5668 5665 5663 5662 5660 5658 5657 5657 5656 5652 5650 5648 5648 5649 5648 5648 5647 5648 5648 5648 5647 5646 5646 5646
5685 5686 5687 5686 5686 5686 5686 5686 5684 5682 5682 5680 5679 5678 5677 5676 5676 5674 5672 5666 5663 5661 5660 5659 5659 5657 5657 5655 5651 5649 5646 5646 5645 5645 5644 5643 5643 5643 5644 5643 5642 5641 5640
5675 5677 5678 5678 5679 5680 5680 5680 5679 5678 5677 5675 5675 5675 5674 5674 5673 5672 5670 5665 5663 5660 5658 5657 5657 5657 5656 5654 5651 5648 5648 5646 5643 5641 5639 5638 5638 5638 5638 5638 5637 5637 5635
5664 5666 5667 5669 5670 5673 5671 5672 5671 5670 5669 5669 5669 5669 5669 5669 5669 5669 5668 5666 5663 5659 5658 5657 5656 5655 5654 5652 5649 5647 5646 5643 5639 5637 5635 5633 5632 5632 5631 5631 5631 5631 5630
5649 5651 5655 5657 5659 5661 5662 5662 5662 5661 5662 5663 5663 5664 5665 5664 5664 5665 5664 5663 5661 5657 5656 5655 5653 5652 5649 5647 5646 5644 5641 5638 5635 5632 5631 5629 5627 5627 5626 5625 5624 5623 5621
5633 5636 5640 5643 5646 5648 5650 5652 5652 5653 5654 5656 5657 5659 5660 5659 5658 5658 5658 5657 5656 5653 5651 5649 5648 5645 5643 5641 5639 5638 5636 5634 5631 5629 5626 5624 5622 5620 5619 5618 5616 5614 5613
5616 5620 5623 5627 5630 5633 5637 5640 5643 5648 5650 5652 5654 5655 5654 5655 5659 5658 5655 5652 5651 5648 5643 5640 5638 5636 5634 5632 5631 5630 5628 5627 5625 5622 5620 5617 5615 5614 5612 5610 5608 5606 5604
5597 5601 5605 5608 5612 5616 5620 5626 5631 5635 5640 5645 5649 5650 5652 5655 5655 5652 5651 5649 5646 5643 5638 5635 5633 5632 5630 5628 5626 5623 5621 5620 5619 5617 5614 5612 5609 5607 5604 5602 5600 5598 5595
5576 5580 5584 5589 5593 5598 5603 5608 5614 5621 5626 5632 5637 5640 5644 5646 5646 5645 5644 5641 5639 5636 5633 5632 5630 5628 5626 5624 5621 5619 5617 5614 5613 5611 5608 5605 5603 5600 5597 5594 5591 5589 5586
5559 5562 5567 5571 5575 5581 5586 5592 5598 5604 5610 5618 5624 5628 5633 5635 5636 5636 5634 5629 5626 5627 5628 5628 5627 5625 5622 5619 5616 5614 5611 5608 5605 5603 5601 5598 5596 5593 5589 5586 5583 5581 5577
5543 5546 5550 5555 5560 5565 5571 5576 5583 5589 5596 5604 5609 5615 5620 5622 5623 5624 5623 5623 5625 5624 5623 5623 5622 5620 5617 5615 5612 5609 5605 5602 5599 5597 5594 5591 5588 5585 5581 5578 5575 5572 5569
5526 5531 5535 5540 5545 5550 5555 5561 5567 5574 5582 5589 5597 5603 5605 5606 5608 5611 5614 5618 5620 5620 5619 5618 5617 5615 5612 5609 5606 5602 5599 5596 5593 5589 5586 5583 5580 5577 5574 5570 5567 5563 5560
5511 5515 5521 5525 5529 5536 5542 5547 5553 5560 5568 5577 5585 5592 5595 5598 5603 5606 5608 5611 5614 5615 5614 5613 5611 5609 5606 5603 5600 5597 5594 5590 5587 5583 5579 5576 5573 5569 5565 5562 5559 5555 5552
5498 5501 5505 5510 5516 5521 5528 5534 5539 5547 5555 5563 5571 5577 5582 5587 5592 5597 5601 5604 5606 5608 5608 5607 5605 5603 5602 5599 5596 5592 5588 5584 5580 5576 5572 5568 5565 5561 5557 5553 5549 5546 5542
5486 5488 5493 5497 5502 5508 5515 5520 5526 5534 5542 5551 5558 5565 5571 5577 5583 5588 5592 5595 5595 5596 5597 5597 5597 5595 5594 5592 5590 5588 5584 5580 5576 5571 5566 5561 5557 5553 5549 5544 5540 5537 5534
5475 5477 5480 5485 5489 5495 5502 5508 5515 5522 5530 5539 5547 5554 5561 5568 5573 5579 5582 5584 5585 5586 5587 5587 5588 5588 5586 5583 5581 5579 5577 5573 5569 5564 5560 5555 5549 5544 5540 5536 5532 5529 5525
5466 5468 5470 5474 5479 5484 5491 5498 5505 5512 5520 5528 5536 5544 5551 5558 5563 5569 5572 5573 5574 5576 5577 5578 5578 5577 5576 5575 5572 5570 5567 5564 5560 5555 5550 5546 5541 5536 5532 5527 5523 5519 5516
5459 5459 5462 5466 5469 5474 5480 5487 5495 5502 5510 5518 5527 5534 5541 5548 5553 5558 5562 5563 5564 5565 5566 5567 5567 5568 5566 5564 5562 5559 5556 5553 5549 5545 5541 5536 5531 5527 5522 5518 5514 5510 5506